[Date Prev][Date Next][Thread Prev][Thread Next] - [Date Index][Thread Index][Author Index]

2 Line ISS Keps 7-5



ISS
1 25544U 98067A   02186.14878472  .00028263  00000-0  36615-3 0  6316
2 25544  51.6375 322.8097 0007746 321.0537  42.0875 15.58619435206837


----
Via the sarex mailing list at AMSAT.ORG courtesy of AMSAT-NA.
To unsubscribe, send "unsubscribe sarex" to Majordomo@amsat.org



AMSAT Top AMSAT Home